Regional Weather Roundup
Issued by NWS

Home | Current Version | Previous Version | Graphics & Text | Print | Product List | Glossary On
Versions: 1 2 3 4 5 6 7 8 9 10 11 12 13 14 15 16 17 18 19 20 21 22 23 24 25 26 27 28 29 30 31 32 33 34 35 36 37 38 39 40 41 42 43 44 45 46 47 48 49 50
000
ASUS45 KPSR 300510
RWRAZ

ARIZONA HOURLY REGIONAL WEATHER ROUNDUP
NATIONAL WEATHER SERVICE PHOENIX AZ
1000 PM MST WED JUL 29 2015

NOTE: FAIR INDICATES FEW OR NO CLOUDS BELOW 12,000 FEET WITH NO
SIGNIFICANT WEATHER AND/OR OBSTRUCTIONS TO VISIBILITY.

AZZ001>003-036-300600-
NORTHWEST ARIZONA

CITY           SKY/WX    TMP DP  RH WIND       PRES   REMARKS
BULLHEAD CITY  CLOUDY    99  55  23 W5        29.90R
KINGMAN        CLOUDY    86  55  34 S21G29    30.09R
$$

AZZ004>008-015-016-018-300600-
NORTH CENTRAL ARIZONA

CITY           SKY/WX    TMP DP  RH WIND       PRES   REMARKS
GRAND CANYON   PTCLDY    72  46  39 S6        30.37R
WILLIAMS       CLOUDY    72  54  53 S8        30.45R
PRESCOTT       CLOUDY    75  58  55 S5        30.27R
FLAGSTAFF      CLOUDY    65  52  62 SE7       30.43R
PAYSON         CLOUDY    64  63  94 E6        30.31F
PAGE           PTCLDY    85  48  27 S15G29    30.14R
$$

AZZ009>014-017-300600-
NORTHEAST ARIZONA

CITY           SKY/WX    TMP DP  RH WIND       PRES   REMARKS
WINSLOW        CLOUDY    71  60  68 S8        30.28F
SAINT JOHNS    CLOUDY    64  62  93 CALM      30.33S
SHOW LOW       LGT RAIN  59  54  82 CALM      30.39S
$$

AZZ023-300600-
GREATER PHOENIX AREA

CITY           SKY/WX    TMP DP  RH WIND       PRES   REMARKS
PHOENIX        CLOUDY    89  63  41 E15       29.96R
LUKE AFB       CLOUDY    90  57  33 SE9       29.96R
DEER VALLEY    CLOUDY    86  61  42 NE13G18   29.99R
SCOTTSDALE     CLOUDY    89  60  37 W5        30.00S
MESA-GATEWAY   PTCLDY    86  63  45 NE5       30.02R
$$

AZZ027-028-300600-
SOUTHWEST MARICOPA COUNTY AND PINAL COUNTY

CITY           SKY/WX    TMP DP  RH WIND       PRES   REMARKS
CASA GRANDE    CLOUDY    84  61  45 E13G20    29.98S
GILA BEND      PTCLDY    89  70  52 E10       29.94R
$$

AZZ503-504-507>509-300600-
SOUTHEAST ARIZONA

CITY           SKY/WX    TMP DP  RH WIND       PRES   REMARKS
TUCSON         CLOUDY    77  68  73 SE13      30.11R
DAVIS-MONTHAN  CLOUDY    75  68  78 SE12      30.10S
NOGALES        MOCLDY    70  64  81 S3        30.18R
SIERRA VISTA   CLOUDY    68  62  79 NW6       30.28R
DOUGLAS          N/A    N/A N/A N/A MISG      30.21R
SAFFORD        CLOUDY    74  65  73 W10       30.17R
$$

AZZ020-021-025-026-031-300600-
SOUTHWEST ARIZONA

CITY           SKY/WX    TMP DP  RH WIND       PRES   REMARKS
YUMA           MOCLDY    94  65  38 SW5       29.88R
$$

CAZ031-033-041-043-047-048-061-300600-
SOUTHERN CALIFORNIA

CITY           SKY/WX    TMP DP  RH WIND       PRES   REMARKS
DOWNTOWN L.A.  PTCLDY    70  63  78 VRB3      29.97R
L.A. AIRPORT   PTCLDY    68  64  87 W7        29.98R
SAN DIEGO      MOCLDY    71  63  75 W7        29.98R
BURBANK        PTCLDY    73  61  65 SE7       29.98R
ONTARIO        MOCLDY    74  62  66 W12       29.98R
RIVERSIDE      CLEAR     75  63  66 W7        29.98R
PALM SPRINGS   MOCLDY    97  65  34 E7        29.91R
EL CENTRO NAS  MOCLDY    93  65  39 SE6       29.87R
IMPERIAL       MOCLDY    94  67  41 SE8       29.85R
BLYTHE         CLOUDY    98  63  31 CALM      29.88R HX 100
NEEDLES        CLOUDY    99  54  22 SW12      29.91R
$$

NVZ020-UTZ003-300600-
SOUTHERN NEVADA-UTAH

CITY           SKY/WX    TMP DP  RH WIND       PRES   REMARKS
LAS VEGAS      CLOUDY    90  51  26 S13       29.93R
SALT LAKE CITY PTCLDY    70  43  37 W3        30.23R
$$

NMZ009-TXZ055-300600-
NEW MEXICO-WEST TEXAS

CITY           SKY/WX    TMP DP  RH WIND       PRES   REMARKS
ALBUQUERQUE    LGT RAIN  68  61  78 N7        30.35S
EL PASO        MOCLDY    77  66  68 VRB6      30.17R
$$


........................KEY........................
SKY/WX - SKY CONDITION/WEATHER
TMP    - TEMPERATURE IN FAHRENHEIT
DP     - DEW POINT IN FAHRENHEIT
RH     - RELATIVE HUMIDITY IN PERCENT
WIND   - DIRECTION AND SPEED IN MILES PER HOUR (MPH)
VRB    - VARIABLE WIND DIRECTION
PRES   - MEAN SEA LEVEL PRESSURE IN INCHES OF MERCURY
         F - FALLING PRESSURE   R - RISING PRESSURE
         S - STEADY PRESSURE
VSB    - VISIBILITY IN MILES
HX     - HEAT INDEX IN FAHRENHEIT
WCI    - WIND CHILL INDEX IN FAHRENHEIT
TC     - TEMPERATURE IN CELSIUS WHICH IS ALSO KNOWN AS
         TEMPERATURE IN CENTIGRADE
AFB    - AIR FORCE BASE
         LUKE AFB IS LUKE AIR FORCE BASE
         DAVIS-MONTHAN IS DAVIS-MONTHAN AIR FORCE BASE
NAS    - NAVAL AIR STATION
         EL CENTRO NAS IS EL CENTRO NAVAL AIR STATION
N/A    - NOT AVAILABLE



USA.gov is the U.S. government's official web portal to all federal, state and local government web resources and services.